Regional Weather Roundup
Issued by NWS Cleveland, OH

Home | Current Version | Previous Version | Graphics & Text | Print | Product List | Glossary On
Versions: 1 2 3 4 5 6 7 8 9 10 11 12 13 14 15 16 17 18 19 20 21 22 23 24 25 26 27 28 29 30 31 32 33 34 35 36 37 38 39 40 41 42 43 44 45 46 47 48 49 50
000
ASUS41 KCLE 011302
RWRCLE
OHIO REGIONAL WEATHER ROUNDUP
NATIONAL WEATHER SERVICE CLEVELAND, OH
900 AM EDT WED JUL 01 2015

NOTE: "FAIR" INDICATES FEW OR NO CLOUDS BELOW 12,000 FEET WITH NO
SIGNIFICANT WEATHER AND/OR OBSTRUCTIONS TO VISIBILITY.

OHZ001>008-015>018-024>027-034-035-043-044-011400-
   NORTHWEST OHIO

CITY           SKY/WX    TMP DP  RH WIND       PRES   REMARKS
DEFIANCE       CLOUDY    61  55  81 NW9       29.92R
FINDLAY        CLOUDY    61  59  93 W8        29.90R FOG
TOLEDO EXPRESS CLOUDY    63  58  83 W9        29.89R
TOLEDO EXEC    CLOUDY    65  60  84 W10       29.89R
LIMA           MOSUNNY   61  58  90 NW6       29.91S
$$

OHZ009>014-019>023-028>033-038-089-011400-
   NORTHEAST OHIO

CITY           SKY/WX    TMP DP  RH WIND       PRES   REMARKS
CLE-HOPKINS    CLOUDY    64  62  93 W5        29.88R FOG
CLE-LAKEFRONT  CLOUDY    65  59  81 NW6       29.86R
CUY CO. ARPT   CLOUDY    64  61  88 NW9       29.87R
LORAIN-ELYRIA  CLOUDY    64  60  87 W7        29.88R FOG
ASHTABULA      CLOUDY    62  60  93 NW10      29.85R
AKRON-CANTON   CLOUDY    64  59  83 W6        29.88R HAZE
WOOSTER        CLOUDY    63  60  90 W8        29.89R FOG
MANSFIELD      CLOUDY    60  60 100 W6        29.89S FOG
YOUNGSTOWN     CLOUDY    64  62  93 W10       29.85S FOG
$$

OHZ042-051>053-060>062-070>072-077>081-011400-
  SOUTHWEST OHIO

CITY           SKY/WX    TMP DP  RH WIND       PRES   REMARKS
CINC-COVINGTON MOSUNNY   66  63  90 N5        29.94R
CINC-LUNKEN    FOG       63  63 100 CALM      29.93S VSB 1/4
HAMILTON       PTSUNNY   67  61  81 NW3       29.94R
DAYTON         PTSUNNY   66  59  78 NW8       29.94R
WRIGHT-PAT AFB SUNNY     66  58  75 NW5       29.92R
DAYTON GENERAL SUNNY     67  59  75 NW6       29.92S
WILMINGTON     SUNNY     67  59  75 NW5       29.93R
$$

OHZ036-037-039>041-045>050-054>059-063>069-073>076-082>088-011400-
  CENTRAL AND SOUTHEAST OHIO

CITY           SKY/WX    TMP DP  RH WIND       PRES   REMARKS
COLUMBUS       MOSUNNY   65  61  87 W6        29.90R
OSU AIRPORT    SUNNY     65  60  84 W7        29.91R
BOLTON FIELD   SUNNY     64  61  88 SW7       29.91R
RICKENBACK AFB SUNNY     64  61  90 W3        29.91R
NEWARK         CLOUDY    65  60  84 NW6       29.90R
MARION         CLOUDY    61  58  90 NW10      29.91R FOG
LANCASTER      PTSUNNY   66  61  84 SW7       29.92R HAZE
ZANESVILLE     NOT AVBL
NEW PHILLY     CLOUDY    63  60  90 VRB5      29.89S
$$


USA.gov is the U.S. government's official web portal to all federal, state and local government web resources and services.